Location: ?
(35.3544°N, 139.4507°E)
Time: 00:55:36
(UTC+00:00)

Cosmos 2344 - Pass Details

Date: 03 August 2024
Orbit: 1207 x 3035 km, 63.3° (Epoch: 12 September)

Event Time Altitude Azimuth Distance (km) Brightness Sun altitude
Exits shadow 12:48:32 56° 86° (E) 1,466 3.6 -30.2°
Drops below altitude 10° 12:54:40 10° 39° (NE) 3,153 5.8 -30.9°
Sets 12:57:21 0° 36° (NE) 4,142 6.5 -31.1°
